This is the latest recevied weather packets stored in our database for station/object G1SCQ. If no packets are shown the sender has not sent any weather packets the latest 10 day(s).
| Time | Temp. | Humidity | Pressure | Rain* | Wind** | Luminosity | Snow |
|---|---|---|---|---|---|---|---|
| 1778141885 | 10.56° C | 75% | 1016.9 hPa | 0 mm | - | 122 W/m² | - |
| 1778141344 | 10.56° C | 75% | 1016.8 hPa | 0 mm | - | 138 W/m² | - |
| 1778140804 | 10° C | 75% | 1016.8 hPa | 0 mm | - | 185 W/m² | - |
| 1778140445 | 10° C | 77% | 1016.9 hPa | 0 mm | - | 140 W/m² | - |
| 1778139904 | 9.44° C | 80% | 1016.3 hPa | 0 mm | - | 117 W/m² | - |
| 1778139364 | 9.44° C | 80% | 1016.4 hPa | 0 mm | - | 98 W/m² | - |
| 1778138824 | 8.89° C | 82% | 1016.3 hPa | 0 mm | - | 76 W/m² | - |
| 1778138284 | 8.89° C | 82% | 1016.5 hPa | 0 mm | - | 56 W/m² | - |
| 1778137744 | 8.89° C | 82% | 1016.4 hPa | 0 mm | - | 56 W/m² | - |
| 1778137204 | 8.33° C | 84% | 1016.3 hPa | 0 mm | - | 58 W/m² | - |
| 1778136844 | 8.33° C | 85% | 1016.5 hPa | 0 mm | - | 56 W/m² | - |
| 1778136304 | 7.78° C | 87% | 1016.5 hPa | 0 mm | - | 50 W/m² | - |
| 1778135764 | 7.22° C | 91% | 1016.3 hPa | 0 mm | - | 45 W/m² | - |
| 1778135224 | 6.67° C | 97% | 1016.2 hPa | 0 mm | - | 44 W/m² | - |
| 1778134684 | 6.11° C | 99% | 1016.5 hPa | 0 mm | - | 45 W/m² | - |
| 1778134144 | 5.56° C | 99% | 1016.3 hPa | 0 mm | - | 51 W/m² | - |
| 1778133604 | 5° C | 99% | 1016.4 hPa | 0 mm | - | 49 W/m² | - |
| 1778133244 | 5° C | 99% | 1016.4 hPa | 0 mm | - | 40 W/m² | - |
| 1778132704 | 5° C | 98% | 1016 hPa | 0 mm | - | 35 W/m² | - |
| 1778132164 | 5° C | 99% | 1016.2 hPa | 0 mm | - | 34 W/m² | - |
| 1778131624 | 5° C | 98% | 1016.2 hPa | 0 mm | - | 34 W/m² | - |
| 1778131084 | 4.44° C | 99% | 1016 hPa | 0 mm | - | 40 W/m² | - |
| 1778130544 | 3.89° C | 98% | 1016 hPa | 0 mm | - | 28 W/m² | - |
| 1778130004 | 3.33° C | 98% | 1015.9 hPa | 0 mm | - | 23 W/m² | - |
| 1778129644 | 3.33° C | 98% | 1015.9 hPa | 0 mm | - | 17 W/m² | - |
* Rain latest hour (hover to see other rain measurements)
** Current wind speed in m/s (hover to see current wind gust speed)